Theta_e
301 302 303 305 310 311 311 310 309 309 310 310 310 310 310 310 310 310 309 304 304 309 309 311 311 311 310 309 311 309 310 311 314 316 317 315 315 316 316 320 323 325 331 331 340
300 301 302 304 304 309 310 310 310 310 309 309 309 310 310 310 309 309 303 303 304 306 308 307 309 311 308 310 310 309 308 312 313 316 316 314 315 315 317 318 321 324 322 327 346
300 300 303 305 303 304 306 309 311 310 310 310 310 310 309 309 309 305 309 305 304 304 307 308 309 311 311 309 310 308 310 312 314 316 315 316 315 316 317 319 319 320 318 317 320
302 303 307 308 304 304 306 307 308 311 310 310 310 309 309 310 304 318 319 315 304 305 310 308 306 307 309 311 310 311 310 312 313 314 314 314 315 316 316 316 317 317 317 317 317
309 310 310 310 308 308 306 306 307 309 310 310 310 309 311 311 306 307 311 316 304 304 310 307 306 307 310 309 309 310 311 311 312 312 312 313 314 315 315 315 315 315 316 315 315
311 311 311 311 310 310 308 306 307 307 311 310 310 310 310 305 305 314 315 308 306 310 308 306 306 308 312 311 309 310 310 311 311 311 311 313 314 313 314 315 316 314 314 313 313
312 312 311 310 310 310 310 307 308 308 311 310 311 311 313 310 311 318 314 308 309 310 308 308 308 312 311 313 310 311 312 311 311 312 312 312 313 314 314 315 315 314 313 312 312
313 312 311 311 310 310 310 308 308 308 311 311 312 312 313 312 316 316 314 311 310 311 310 310 308 309 312 313 312 314 312 313 313 313 313 314 314 315 314 313 313 313 312 313 313
312 311 310 310 310 310 310 309 309 311 312 312 311 312 313 316 318 314 313 313 310 309 310 313 312 313 313 313 313 311 313 313 315 313 314 313 313 314 313 313 313 313 312 312 312
310 310 310 310 310 310 310 309 310 313 313 312 313 315 312 317 318 318 315 314 314 311 313 314 311 312 309 311 314 314 314 314 315 316 314 314 313 312 313 312 313 312 312 313 313
310 310 309 309 310 311 309 308 314 315 314 315 316 315 316 320 318 316 316 314 315 314 314 312 312 312 313 312 313 314 314 314 314 314 315 313 312 312 312 312 311 311 311 312 312
310 309 309 310 310 310 308 306 310 313 316 317 316 315 315 317 320 316 314 313 314 313 312 311 312 312 312 312 313 313 314 313 313 313 312 313 313 313 314 312 311 312 312 312 312
309 309 309 310 309 308 307 308 312 312 314 317 320 320 319 317 319 320 310 311 315 313 311 311 313 313 313 314 315 315 314 314 314 315 314 315 314 314 314 315 315 313 312 312 311
309 309 309 309 309 307 307 313 314 312 317 319 322 321 320 319 320 318 310 310 315 316 312 312 312 314 314 314 314 315 314 316 315 314 313 314 314 312 313 313 313 313 311 311 311
309 308 309 307 307 307 313 314 313 311 325 321 321 319 318 318 317 317 312 312 313 315 314 315 315 315 315 315 315 315 316 315 315 314 314 313 312 312 313 315 314 313 313 313 311
309 309 310 308 307 311 314 312 313 321 326 323 319 320 319 318 317 316 316 315 314 315 315 314 315 316 315 315 315 315 316 312 310 310 313 313 313 312 314 314 314 315 319 317 315
308 308 308 308 308 313 312 312 319 325 323 322 319 318 319 320 319 317 316 315 315 316 316 316 316 315 315 316 315 314 312 313 314 313 314 313 314 312 314 318 320 320 318 315 314
308 308 309 310 312 311 312 316 322 322 327 327 320 318 318 318 318 317 316 316 315 314 315 318 320 317 317 317 316 312 311 313 317 316 315 316 318 316 321 321 320 318 315 314 313
308 308 307 312 312 311 313 320 321 327 327 328 321 320 319 319 318 317 315 315 316 314 316 317 319 321 321 321 321 319 314 311 316 318 319 318 318 317 321 321 320 318 317 316 313
307 305 308 315 315 313 318 321 323 324 326 322 323 323 320 321 325 318 317 320 321 318 317 322 324 322 321 319 319 321 319 322 318 323 324 321 321 319 324 322 320 319 318 316 315
306 309 317 317 316 315 321 323 327 326 324 323 322 323 325 326 325 326 324 321 320 320 318 318 319 321 319 320 320 319 319 319 318 319 321 320 321 318 322 320 321 320 318 318 318
305 311 317 316 317 317 323 324 323 325 324 321 321 322 323 322 321 325 326 323 319 319 321 319 318 323 322 317 318 318 321 320 323 324 318 315 318 318 319 317 316 316 317 317 319
306 307 314 317 321 322 322 324 325 324 323 321 320 319 319 320 320 321 321 319 319 321 321 318 317 316 310 317 316 319 318 321 320 322 327 331 324 318 318 317 316 316 314 313 314
307 315 317 318 317 319 323 323 324 323 322 318 317 316 317 317 315 319 320 318 319 321 320 315 315 313 311 316 316 318 317 316 317 319 325 324 323 320 319 319 316 314 312 311 312
306 316 314 320 320 317 317 319 323 322 319 315 316 317 317 316 315 315 314 316 320 320 316 312 314 318 317 316 316 316 315 314 315 317 319 316 318 317 315 315 314 311 312 311 311
312 314 313 315 318 318 316 315 320 317 316 315 316 315 313 315 314 315 313 313 316 315 316 311 315 316 317 315 315 315 314 314 314 315 314 315 315 311 312 311 312 311 311 311 310
309 310 309 313 316 318 319 316 316 313 312 312 314 314 314 312 310 309 310 309 312 314 313 312 312 311 313 313 312 311 310 311 312 312 313 314 312 316 314 312 311 310 310 311 310
Wind_Speed
17 16 15 16 15 16 16 15 13 13 13 12 12 11 10 11 12 11 12 19 26 12 11 9 11 12 6 3 3 3 2 4 5 5 5 6 8 6 5 4 4 4 4 5 23
15 17 17 16 16 14 14 14 14 13 13 12 11 10 10 9 12 17 31 21 17 23 13 8 7 9 4 5 4 4 4 8 6 5 4 3 3 4 5 8 6 5 8 10 23
17 16 17 18 16 16 16 13 13 13 12 12 11 10 8 6 5 11 5 27 23 21 22 13 7 6 3 4 5 6 6 5 4 6 2 4 9 4 3 2 2 1 2 5 6
18 18 18 17 18 17 17 18 15 12 12 11 10 8 6 5 5 2 3 5 30 26 14 11 5 6 5 5 5 3 7 5 3 5 2 6 4 5 1 7 4 4 3 2 3
18 19 19 20 18 19 18 19 19 16 13 10 8 6 3 3 9 6 9 8 31 27 16 7 6 6 6 6 3 3 5 5 6 9 6 5 9 7 6 10 7 5 5 5 5
19 20 20 20 21 21 19 21 22 19 12 8 6 2 1 4 5 8 4 25 29 27 14 10 9 7 5 5 7 6 9 10 5 9 5 6 10 8 8 10 8 6 7 8 9
22 22 23 23 22 23 23 24 22 17 10 7 6 5 4 15 2 5 10 21 29 26 9 17 9 5 5 3 5 4 4 6 6 8 8 8 8 8 10 7 8 9 8 8 10
23 23 25 24 24 23 24 27 25 13 6 7 6 4 8 6 6 12 13 11 20 24 10 20 15 3 3 2 5 1 3 1 5 3 7 9 11 6 9 7 10 10 8 8 9
24 24 24 25 25 25 25 31 18 4 5 8 5 3 10 8 6 17 16 7 19 15 16 1 10 6 2 6 3 4 3 4 5 5 2 5 5 9 6 8 10 10 9 8 9
23 25 25 24 25 25 28 27 1 7 8 6 4 2 8 4 7 13 21 13 5 6 1 4 2 4 2 4 6 5 4 3 4 1 4 4 8 10 12 9 12 10 9 8 8
25 25 25 26 24 22 24 6 2 2 7 10 8 5 3 4 8 11 19 9 2 4 5 4 4 6 8 5 4 3 2 4 4 4 1 7 7 10 11 3 8 8 9 9 10
26 27 27 26 25 24 16 4 7 1 5 19 14 12 12 4 3 5 19 6 6 6 4 4 5 8 4 3 4 4 3 5 10 7 7 9 9 9 4 5 7 9 9 10 7
29 30 29 29 34 10 10 15 4 7 3 6 9 8 6 9 6 5 13 6 5 6 6 7 6 7 4 4 3 4 4 5 9 5 3 3 5 6 5 5 2 5 6 7 9
29 30 28 28 9 4 7 5 16 11 1 5 7 7 6 6 4 7 13 7 3 9 7 5 6 5 4 6 8 6 9 11 6 4 4 3 5 5 6 7 5 8 7 9 9
31 31 28 19 17 5 5 8 11 4 3 5 5 7 8 9 5 4 9 5 8 6 7 7 5 5 4 7 7 7 3 6 7 5 3 1 1 7 2 4 7 8 9 9 10
35 35 28 15 10 21 11 11 6 3 6 5 6 6 7 4 3 3 4 4 5 5 2 8 2 4 6 5 5 1 1 6 5 3 1 5 6 4 4 5 5 5 7 7 10
37 40 31 16 7 5 11 2 3 3 5 5 5 6 6 6 4 5 7 6 6 6 6 0 4 4 5 3 1 4 5 3 3 1 5 3 0 7 5 5 6 6 5 4 5
43 40 22 18 13 15 6 3 3 5 6 5 5 7 5 4 3 6 6 5 2 5 3 5 3 6 4 7 7 6 9 5 6 4 4 4 4 4 2 5 5 6 5 5 8
40 20 12 12 20 8 3 2 5 4 1 6 5 7 3 4 5 4 7 6 4 5 5 5 3 3 4 1 6 3 4 5 6 2 3 4 6 8 5 8 8 8 9 8 8
23 11 9 5 19 9 2 5 4 5 12 3 4 4 7 8 4 5 7 1 5 3 4 3 1 3 4 3 3 4 4 2 2 4 4 3 4 5 2 5 6 6 7 7 6
8 5 4 18 16 3 3 5 5 3 7 3 2 3 2 6 5 4 2 3 3 3 6 4 4 3 2 3 2 5 2 4 4 4 5 1 5 4 7 3 1 3 3 5 5
6 3 1 23 3 2 3 5 2 2 4 3 5 2 2 2 4 4 4 3 5 1 4 2 4 1 3 6 3 2 2 3 3 4 1 4 6 1 3 4 6 6 8 5 5
5 3 4 5 3 3 4 3 2 3 0 5 3 3 3 3 5 4 5 2 6 4 3 4 2 2 5 5 5 6 3 5 4 3 5 3 5 2 4 6 5 7 7 7 8
3 4 3 1 2 2 2 4 4 2 3 2 4 5 5 5 6 4 4 5 3 4 9 6 3 5 6 3 3 2 0 2 5 3 2 7 6 9 12 18 14 8 6 6 3
2 2 1 3 2 2 3 4 5 5 4 1 4 3 5 3 3 4 4 3 6 4 5 4 3 2 2 2 3 3 6 6 7 6 7 2 9 5 8 11 16 4 5 6 6
2 2 4 3 4 4 5 1 5 4 4 3 6 4 6 5 2 4 5 2 3 5 3 3 2 2 3 4 2 4 8 8 7 8 10 14 15 9 2 1 5 5 5 5 5
5 4 1 3 4 1 4 8 2 5 7 4 10 7 9 4 5 6 2 3 4 6 3 3 5 3 3 4 5 6 6 7 6 6 5 6 6 2 3 5 4 3 3 4 5
Wind_Direction
342 345 349 350 343 339 342 323 307 294 285 282 278 278 285 290 296 268 230 219 224 177 151 131 181 198 190 218 217 107 87 214 211 194 242 323 24 347 298 345 328 321 162 153 166
341 340 342 348 348 339 335 335 318 301 294 287 286 288 289 296 292 248 245 238 218 201 195 176 174 149 164 192 202 149 174 207 205 218 271 330 307 359 2 350 344 21 18 81 137
339 340 340 341 345 346 339 334 326 311 293 285 278 275 283 304 260 242 247 227 212 199 202 197 135 140 179 164 196 188 216 169 227 246 291 291 320 7 338 0 264 47 65 85 108
340 340 338 338 338 340 344 339 331 312 294 277 272 270 262 258 223 254 249 223 193 185 168 154 134 145 169 193 211 198 244 215 175 237 277 270 275 306 199 233 184 258 274 50 69
341 340 339 337 337 337 335 339 332 318 296 267 257 250 238 237 252 271 283 201 174 179 181 155 140 152 174 198 143 226 267 250 237 259 241 272 260 240 273 251 228 220 189 212 199
335 334 333 333 333 332 329 331 335 324 303 244 251 220 245 261 262 294 245 153 166 169 174 156 184 193 196 200 156 215 229 257 272 258 242 205 256 150 251 254 253 202 236 210 216
330 330 329 329 328 326 326 328 331 321 301 215 206 218 270 241 194 306 188 171 173 175 168 199 199 169 161 199 218 221 216 270 254 253 229 175 262 211 231 240 249 265 253 245 235
325 323 324 323 323 321 322 325 325 303 268 190 180 196 248 256 324 197 183 183 184 192 188 202 196 206 201 233 23 357 36 220 273 259 253 157 254 263 249 234 247 249 251 251 250
324 323 324 322 320 320 321 323 320 258 182 165 162 187 265 306 242 214 198 187 187 204 220 210 162 202 146 132 18 354 205 189 290 208 216 166 281 270 266 247 254 254 247 242 252
327 325 322 322 319 319 325 329 300 118 125 146 265 317 262 236 187 205 213 196 159 144 153 199 143 166 67 113 199 207 207 224 202 245 182 278 265 284 286 225 227 239 262 266 256
328 327 325 321 317 312 327 339 117 187 217 194 189 230 259 304 186 194 193 160 328 128 165 183 136 197 204 184 173 185 208 265 260 252 306 254 252 266 285 247 233 230 249 256 243
328 329 326 320 315 308 297 252 240 48 280 224 236 249 282 6 312 218 172 149 141 211 152 55 218 221 202 169 210 229 245 267 290 260 168 268 251 249 288 250 223 217 237 241 247
327 328 329 322 319 310 206 227 279 297 268 271 197 222 218 159 215 241 152 156 146 155 170 166 225 173 169 245 235 244 204 244 225 292 221 245 280 274 277 280 270 251 249 291 244
328 328 325 327 319 308 247 251 296 217 343 260 183 236 172 171 222 211 172 143 147 179 147 215 253 202 194 230 181 252 215 230 238 252 238 134 276 291 272 295 299 278 267 266 264
328 329 323 322 289 254 178 342 125 174 254 168 158 154 150 165 140 207 161 87 166 156 123 229 167 162 185 215 181 222 135 213 206 185 134 267 98 266 276 292 287 300 297 296 262
326 326 320 319 241 247 282 318 168 66 253 187 131 159 134 190 158 99 122 101 146 145 129 208 195 150 206 211 192 345 24 38 41 94 237 229 171 267 227 228 292 271 308 318 313
325 321 307 259 229 197 332 160 71 197 301 175 163 150 157 160 160 137 154 154 149 149 216 109 226 204 179 215 348 105 67 335 330 340 218 256 81 234 265 263 248 270 309 354 16
326 320 305 250 254 265 285 61 206 241 278 331 140 131 159 131 214 155 120 145 146 115 132 166 236 174 180 184 189 188 160 160 207 207 247 319 247 239 280 331 323 27 348 127 104
327 321 281 257 218 202 99 157 223 221 148 272 119 149 224 164 135 126 173 184 159 161 159 153 260 330 74 87 152 172 173 193 108 18 75 252 300 314 15 24 57 52 39 19 357
321 307 267 210 167 158 107 232 233 212 308 267 157 90 183 182 101 119 153 120 131 197 143 177 86 3 341 46 23 124 149 106 11 164 226 265 252 235 46 61 43 54 63 40 61
312 320 296 162 143 72 198 236 260 300 14 282 158 128 101 138 132 118 66 45 52 43 99 111 110 285 5 28 61 2 47 60 120 131 160 215 256 232 169 152 12 312 147 111 84
333 311 35 158 108 181 205 214 274 5 333 302 96 110 127 55 82 101 130 106 15 43 78 49 115 184 245 325 249 112 106 114 148 215 137 142 268 328 101 29 4 290 293 311 274
310 268 345 256 209 211 262 232 264 171 355 319 76 62 65 118 102 103 107 86 136 34 161 168 34 77 355 347 4 76 35 89 105 92 209 200 240 122 288 309 341 320 276 277 298
304 308 313 197 213 266 282 249 183 210 166 5 26 63 69 46 26 110 95 36 48 102 87 102 130 161 192 161 170 205 217 165 156 155 214 232 291 306 326 313 310 299 303 288 337
230 262 123 276 223 289 257 286 192 167 141 151 19 48 133 101 67 87 59 57 37 38 45 87 138 129 192 194 189 228 247 219 208 217 214 204 242 249 245 264 281 346 92 75 62
285 339 336 282 296 346 327 284 229 122 26 68 106 50 88 108 120 149 132 130 164 35 71 10 124 66 304 284 347 263 264 263 237 236 245 249 265 239 263 68 72 42 57 50 31
320 328 347 289 316 264 344 318 131 123 40 87 134 95 75 135 135 154 125 142 141 135 114 105 130 108 264 5 343 296 239 209 232 223 220 240 232 175 105 122 141 100 51 9 337